Location: Claremont
(33.9858°S, 18.4575°E)
Time: 05:07:04
(UTC+00:00)

Cosmos 1340 Rocket - Pass Details

Date: 03 March 2021
Orbit: 528 x 559 km, 81.2° (Epoch: 17 April)

Event Time Altitude Azimuth Distance (km) Brightness Sun altitude
Rises 19:26:35 0° 196° (SSW) 2,774 7.0 -25.7°
Reaches altitude 10° 19:28:50 10° 201° (SSW) 1,872 6.1 -26.1°
Maximum altitude 19:32:48 46° 274° (W) 768 3.8 -26.9°
Enters shadow 19:32:49 46° 275° (W) 768 3.8 -26.9°
